TimeEDT,TemperatureF,Dew PointF,Humidity,Sea Level PressureIn,VisibilityMPH,Wind Direction,Wind SpeedMPH,Gust SpeedMPH,PrecipitationIn,Events,Conditions,WindDirDegrees,DateUTC
12:34 AM,46.4,46.4,100,29.97,1.8,Calm,Calm,-,N/A,,Clear,0,2013-06-18 04:34:00
12:37 AM,46.4,46.4,100,29.97,0.8,Calm,Calm,-,N/A,,Clear,0,2013-06-18 04:37:00
12:47 AM,46.4,46.4,100,29.97,1.5,Calm,Calm,-,N/A,,Clear,0,2013-06-18 04:47:00
12:49 AM,46.4,46.4,100,29.96,3.0,Calm,Calm,-,N/A,,Clear,0,2013-06-18 04:49:00
12:53 AM,46.9,45.0,93,29.97,2.5,Calm,Calm,-,N/A,,Clear,0,2013-06-18 04:53:00
1:00 AM,48.2,46.4,93,29.96,1.2,Calm,Calm,-,N/A,,Clear,0,2013-06-18 05:00:00
1:04 AM,46.4,44.6,93,29.96,2.0,Calm,Calm,-,N/A,,Clear,0,2013-06-18 05:04:00
1:17 AM,46.4,44.6,93,29.96,4.0,Calm,Calm,-,N/A,,Clear,0,2013-06-18 05:17:00
1:25 AM,44.6,42.8,93,29.96,1.2,Calm,Calm,-,N/A,,Clear,0,2013-06-18 05:25:00
1:36 AM,44.6,42.8,93,29.95,3.0,Calm,Calm,-,N/A,,Clear,0,2013-06-18 05:36:00
1:42 AM,44.6,44.6,100,29.96,1.5,Calm,Calm,-,N/A,,Clear,0,2013-06-18 05:42:00
1:47 AM,44.6,44.6,100,29.96,0.8,Calm,Calm,-,N/A,,Mist,0,2013-06-18 05:47:00
1:53 AM,44.1,43.0,96,29.96,0.5,Calm,Calm,-,N/A,Fog,Fog,0,2013-06-18 05:53:00
2:05 AM,44.6,44.6,100,29.95,1.2,Calm,Calm,-,N/A,,Partly Cloudy,0,2013-06-18 06:05:00
2:07 AM,44.6,44.6,100,29.95,4.0,Calm,Calm,-,N/A,,Partly Cloudy,0,2013-06-18 06:07:00
2:21 AM,46.4,44.6,93,29.96,1.0,Calm,Calm,-,N/A,,Mist,0,2013-06-18 06:21:00
2:28 AM,44.6,42.8,93,29.96,0.5,Calm,Calm,-,N/A,Fog,Fog,0,2013-06-18 06:28:00
2:32 AM,44.6,44.6,100,29.96,1.8,Calm,Calm,-,N/A,,Partly Cloudy,0,2013-06-18 06:32:00
2:38 AM,42.8,42.8,100,29.96,0.8,SSW,3.5,-,N/A,,Mist,210,2013-06-18 06:38:00
2:53 AM,43.0,42.1,97,29.97,3.0,Calm,Calm,-,N/A,,Partly Cloudy,0,2013-06-18 06:53:00
3:13 AM,44.6,42.8,93,29.96,2.0,Calm,Calm,-,N/A,,Clear,0,2013-06-18 07:13:00
3:15 AM,42.8,42.8,100,29.96,1.2,Calm,Calm,-,N/A,,Partly Cloudy,0,2013-06-18 07:15:00
3:22 AM,44.6,44.6,100,29.96,2.0,Calm,Calm,-,N/A,,Partly Cloudy,0,2013-06-18 07:22:00
3:30 AM,44.6,44.6,100,29.96,4.0,Calm,Calm,-,N/A,,Partly Cloudy,0,2013-06-18 07:30:00
3:35 AM,44.6,42.8,93,29.95,1.8,Calm,Calm,-,N/A,,Partly Cloudy,0,2013-06-18 07:35:00
3:49 AM,44.6,42.8,93,29.95,3.0,Calm,Calm,-,N/A,,Clear,0,2013-06-18 07:49:00
3:53 AM,43.0,42.1,97,29.95,9.0,Calm,Calm,-,N/A,,Clear,0,2013-06-18 07:53:00
4:53 AM,46.9,45.0,93,29.97,10.0,Calm,Calm,-,N/A,,Overcast,0,2013-06-18 08:53:00
5:53 AM,48.0,46.9,96,29.98,10.0,Calm,Calm,-,N/A,,Scattered Clouds,0,2013-06-18 09:53:00
6:53 AM,50.0,48.0,93,29.98,10.0,Calm,Calm,-,N/A,,Partly Cloudy,0,2013-06-18 10:53:00
7:53 AM,52.0,50.0,93,30.01,10.0,SSW,3.5,-,N/A,,Partly Cloudy,210,2013-06-18 11:53:00
8:53 AM,54.0,52.0,93,30.01,10.0,SSW,3.5,-,N/A,,Scattered Clouds,210,2013-06-18 12:53:00
9:53 AM,55.9,53.1,90,30.01,10.0,Calm,Calm,-,N/A,,Clear,0,2013-06-18 13:53:00
10:53 AM,62.1,51.1,67,30.01,10.0,Calm,Calm,-,N/A,,Clear,0,2013-06-18 14:53:00
11:53 AM,66.0,45.0,47,30.00,10.0,North,4.6,-,N/A,,Clear,360,2013-06-18 15:53:00
12:53 PM,66.9,46.9,49,30.00,10.0,Variable,3.5,-,N/A,,Clear,0,2013-06-18 16:53:00
1:53 PM,68.0,46.0,45,29.99,10.0,Variable,3.5,-,N/A,,Partly Cloudy,0,2013-06-18 17:53:00
2:53 PM,70.0,46.9,44,29.98,10.0,West,8.1,-,N/A,,Mostly Cloudy,280,2013-06-18 18:53:00
3:53 PM,68.0,46.0,45,29.97,10.0,NNW,6.9,-,N/A,,Mostly Cloudy,330,2013-06-18 19:53:00
4:53 PM,66.9,44.1,44,29.96,10.0,NW,8.1,-,N/A,,Mostly Cloudy,320,2013-06-18 20:53:00
5:53 PM,70.0,42.1,36,29.96,10.0,NNW,8.1,-,N/A,,Clear,340,2013-06-18 21:53:00
6:44 PM,68.0,44.6,43,29.97,10.0,NNW,6.9,-,N/A,,Partly Cloudy,330,2013-06-18 22:44:00
6:53 PM,66.9,44.1,44,29.98,10.0,NW,9.2,-,N/A,,Clear,320,2013-06-18 22:53:00
7:53 PM,64.9,42.1,43,29.99,10.0,NNW,5.8,-,N/A,,Clear,340,2013-06-18 23:53:00
8:53 PM,60.1,42.1,51,30.01,10.0,NNW,4.6,-,N/A,,Clear,340,2013-06-19 00:53:00
9:53 PM,55.9,43.0,62,30.03,10.0,NNW,3.5,-,N/A,,Clear,340,2013-06-19 01:53:00
10:53 PM,57.0,37.0,47,30.04,10.0,North,8.1,-,N/A,,Clear,360,2013-06-19 02:53:00
11:53 PM,55.9,37.0,49,30.05,10.0,North,8.1,-,N/A,,Clear,350,2013-06-19 03:53:00